ALEXIS

Satellite information

Favourite Embed

Satellite Type and Status

PAYLOADIN ORBIT

Key statistics

Satellite ALEXIS at a glance.

Uptime

11700

Days in orbit

Revolutions

≈ 14.3

Per day

Orbit

LEO

Low Earth Orbit

Inclination

69.9

Latest

Satellite identification and parameters

Extended collection of information and parameters for ALEXIS.

Object identification

Identified? True

Debris? False

Object name: ALEXIS

International designator: 1993-026A

Object number (NORAD): 22638

Object ID (CCSDS): 22638

Country: UNITED STATES OF AMERICA (US)

Current information (Y/N): Y

RCS size: MEDIUM

Orbital parameters

Period: 100.454 minutes

Inclination: 69.9189 deg

SMA: 7158.207 km

Apoapsis: 822.654 km

Periapsis: 737.49 km

RAAN: 146.786 deg

Eccentricy: 0.0059487

Argument of periapsis: 353.6767 deg

Mean anomaly: 6.3599 deg

Mean motion: 14.33495792 rev/day

Mean motion (dot): 0.00000194 rev/day2

B* drag term: 0.000089827 1/REarth

Two-line elements (TLE)

Creation date: May 6, 2025, 3:54 a.m.

Reference frame: TEME

Reference center: EARTH

Epoch: May 5, 2025, 6:40 p.m. UTC

TLE line 0: 0 ALEXIS

TLE line 1: 1 22638U 93026A 25125.77809657 .00000194 00000-0 89827-4 0 9997

TLE line 2: 2 22638 69.9189 146.7860 0059487 353.6767 6.3599 14.33495792 51776

Live tracking on map

Real-time ground track for satellite ALEXIS.

In-orbit conjunctions

A list of the most updated potential collisions computed for object ALEXIS.

Target Orbit TCA Probability of collision Miss distance Type
CZ-6A DEB SSO 2025-02-20 07:18:55 0.0001211571 868.0 (m) DEBRIS
NOAA 16 DEB SSO 2024-12-30 07:05:33 0.0001595993 523.0 (m) DEBRIS
FENGYUN 1C DEB SSO 2024-11-29 19:59:50 0.0001125326 598.0 (m) DEBRIS
CZ-6A DEB SSO 2024-11-01 19:16:01 0.000129769 465.0 (m) DEBRIS
FENGYUN 1C DEB SSO 2024-10-13 16:12:37 0.0005123739 227.0 (m) DEBRIS

Associated space launch

ALEXIS was lifted into orbit during the mission ‘Pegasus | Array of Low Energy X-ray Imaging Sensors (ALEXIS)’, on board a Pegasus space rocket.

The launch took place on April 25, 1993, 1:56 p.m. from Edwards Air Force Base.

For more information about the launch, click the button.

Launch to space Pegasus | Array of Low Energy X-ray Imaging Sensors (ALEXIS)
Pegasus | Array of Low Energy X-ray Imaging Sensors (ALEXIS)

Agency: N/A

Status: Launch Successful

Launch date: April 25, 1993, 1:56 p.m. UTC

Rocket: Pegasus

Launch pad: Edwards Air Force Base

Location: Air launch to orbit

...

Latest news about this satellite

There are no fresh news available about this satellite. Check back as we update our databases every day.


Newsletter sign-up

Weekly statistics, charts and insights to help you stay on top of the space industry.